FW4844 Weather Reports


Display with metric or nautical units.
time (UTC)temp
F
wind
direction
speed
MPH
gust
MPH
rain 1hr
in
rain 24hr
in
rain mn
in
humidity
%
barometer
mb
20260507073543 39 261 3.0 8.0 0.00 1.16 0.00 96 1006.0
20260507073031 39 246 3.0 7.0 0.00 1.16 0.00 96 1005.9
20260507072525 39 265 2.0 6.0 0.00 1.16 0.00 96 1005.9
20260507072020 40 254 3.0 8.0 0.00 1.16 0.00 96 1005.9
20260507071510 40 296 3.0 8.0 0.00 1.16 0.00 96 1005.8
20260507071003 40 246 3.0 7.0 0.00 1.16 0.00 96 1005.9
20260507070722 40 302 3.0 9.0 0.00 1.16 0.00 96 1005.9
20260507065948 39 286 4.0 9.0 0.00 1.16 0.00 96 1006.0
20260507065709 40 279 3.0 7.0 0.00 1.16 0.00 96 1006.0
20260507064936 40 289 3.0 6.0 0.00 1.16 0.00 96 1006.0
20260507064426 40 269 3.0 8.0 0.00 1.16 0.00 96 1006.1
20260507064141 40 257 3.0 8.0 0.00 1.16 0.00 96 1006.0
20260507063422 40 262 3.0 7.0 0.00 1.16 0.00 96 1006.1
20260507062421 40 250 2.0 4.0 0.00 1.16 0.00 95 1006.0
20260507061922 40 243 2.0 4.0 0.00 1.16 0.00 95 1006.0
20260507061421 40 244 2.0 6.0 0.00 1.16 0.00 95 1005.9
20260507060927 40 263 2.0 6.0 0.00 1.16 0.00 95 1005.9
20260507060422 40 294 2.0 5.0 0.00 1.16 0.00 95 1005.9
20260507055922 40 317 3.0 8.0 0.00 1.16 0.00 95 1005.9
20260507055422 40 308 3.0 11.0 0.00 1.16 0.00 95 1006.0
20260507054923 40 287 4.0 11.0 0.00 1.16 0.00 95 1005.8
20260507054421 40 265 4.0 9.0 0.00 1.16 0.00 94 1005.9
20260507053921 40 308 3.0 9.0 0.00 1.17 0.00 94 1005.8
20260507053421 40 259 3.0 10.0 0.00 1.17 0.00 94 1005.9
20260507052910 40 270 4.0 10.0 0.00 1.17 0.00 95 1006.0
20260507052403 40 250 4.0 11.0 0.00 1.17 0.00 95 1006.0
20260507051858 40 277 4.0 9.0 0.00 1.17 0.00 95 1006.1
20260507051348 40 281 4.0 9.0 0.00 1.17 0.00 95 1006.1
20260507050846 40 284 4.0 11.0 0.00 1.17 0.00 95 1006.2
20260507050612 40 247 4.0 11.0 0.00 1.17 0.00 96 1006.1
20260507045845 40 355 4.0 9.0 0.00 1.18 0.00 96 1006.0
20260507045346 40 305 4.0 11.0 0.00 1.18 0.00 96 1006.0
20260507044847 40 267 3.0 11.0 0.00 1.18 0.00 96 1006.0
20260507044346 40 302 2.0 9.0 0.00 1.18 0.00 96 1006.0
20260507043844 40 329 3.0 9.0 0.00 1.18 0.00 96 1006.4
20260507043344 40 245 3.0 9.0 0.00 1.18 0.00 96 1006.6
20260507043107 40 307 4.0 9.0 0.00 1.18 0.00 96 1006.6
20260507042345 41 295 5.0 11.0 0.00 1.18 0.00 96 1006.6
20260507041843 40 259 4.0 11.0 0.00 1.19 0.00 96 1006.7
20260507041344 40 247 3.0 9.0 0.00 1.20 0.00 97 1006.7
20260507041111 40 257 3.0 9.0 0.00 1.20 0.00 97 1006.7
20260507040344 40 267 3.0 9.0 0.00 1.21 0.00 97 1006.4
20260507035844 40 266 4.0 9.0 0.00 1.21 1.21 97 1006.2
20260507035343 40 278 5.0 11.0 0.00 1.21 1.21 97 1006.1
20260507035108 40 297 5.0 11.0 0.01 1.21 1.21 96 1006.4
20260507034603 40 315 4.0 11.0 0.01 1.21 1.21 96 1006.6
20260507033843 41 0 4.0 11.0 0.01 1.21 1.21 97 1006.5
20260507033344 41 279 3.0 9.0 0.01 1.21 1.21 97 1006.5
20260507032843 41 287 3.0 8.0 0.01 1.21 1.21 97 1006.5
20260507032341 41 267 3.0 11.0 0.01 1.21 1.21 97 1006.4
20260507031842 41 261 3.0 11.0 0.01 1.21 1.21 97 1006.2
20260507031608 41 305 3.0 10.0 0.01 1.22 1.21 97 1006.2
20260507030841 41 286 3.0 11.0 0.01 1.22 1.21 97 1006.5
20260507030331 41 255 3.0 11.0 0.01 1.22 1.21 97 1006.5
20260507030056 41 277 3.0 8.0 0.01 1.22 1.21 97 1006.5
20260507025555 41 261 4.0 10.0 0.01 1.22 1.21 97 1006.6
20260507024830 41 265 5.0 16.0 0.00 1.21 1.20 97 1006.5
20260507024330 41 250 5.0 16.0 0.00 1.22 1.20 97 1006.5
20260507023830 41 274 5.0 11.0 0.00 1.22 1.20 97 1006.6
20260507023330 41 285 6.0 16.0 0.00 1.22 1.20 97 1006.8
20260507022830 41 295 5.0 16.0 0.00 1.22 1.20 97 1006.9
20260507022330 41 266 4.0 11.0 0.00 1.22 1.20 97 1006.7
20260507021830 41 264 2.0 7.0 0.00 1.22 1.20 97 1006.6
20260507021331 41 288 2.0 5.0 0.00 1.22 1.20 97 1006.5
20260507020831 41 284 2.0 4.0 0.00 1.23 1.20 97 1006.6
20260507020331 41 280 2.0 4.0 0.00 1.23 1.20 97 1006.5
20260507015828 42 279 2.0 4.0 0.00 1.23 1.20 97 1006.5
20260507015322 42 322 1.0 3.0 0.00 1.23 1.20 97 1006.7
20260507014823 42 321 2.0 5.0 0.00 1.23 1.20 97 1006.7
20260507014323 42 344 3.0 7.0 0.00 1.23 1.20 97 1006.8
20260507013825 42 291 3.0 8.0 0.00 1.23 1.20 97 1006.8
20260507013323 42 247 3.0 8.0 0.00 1.23 1.20 97 1006.7
20260507012822 42 319 3.0 11.0 0.00 1.23 1.20 97 1006.6
20260507012322 42 244 3.0 11.0 0.00 1.23 1.20 97 1006.5
20260507012044 42 262 3.0 7.0 0.01 1.23 1.20 97 1006.5
20260507011321 42 328 3.0 9.0 0.02 1.23 1.20 97 1006.4
20260507010822 42 248 3.0 9.0 0.03 1.23 1.20 97 1006.4
20260507010321 42 319 4.0 14.0 0.04 1.23 1.20 97 1006.4
20260507010041 42 255 4.0 14.0 0.04 1.23 1.20 97 1006.5
20260507005322 42 253 4.0 12.0 0.04 1.23 1.20 97 1006.2
20260507004822 42 299 4.0 9.0 0.05 1.23 1.20 98 1006.1
20260507004322 42 238 3.0 9.0 0.06 1.23 1.20 98 1006.0
20260507003822 42 290 2.0 7.0 0.06 1.23 1.20 98 1006.1
20260507003322 42 254 3.0 7.0 0.06 1.23 1.20 98 1006.0
20260507002821 42 247 3.0 8.0 0.06 1.23 1.20 98 1006.0
20260507002318 42 258 4.0 8.0 0.06 1.23 1.20 98 1006.0
20260507001818 42 317 4.0 8.0 0.05 1.23 1.19 98 1005.9
20260507001317 42 238 4.0 10.0 0.05 1.22 1.18 98 1005.9
20260507000817 42 247 4.0 10.0 0.04 1.21 1.17 98 1006.0
20260507000317 43 293 4.0 9.0 0.03 1.20 1.16 98 1005.9
20260506235818 43 257 3.0 9.0 0.03 1.20 1.16 98 1005.9
20260506235318 43 257 4.0 10.0 0.03 1.20 1.16 98 1005.7
20260506234818 43 237 4.0 10.0 0.02 1.19 1.15 98 1005.6
20260506234314 43 257 3.0 9.0 0.01 1.18 1.14 98 1005.6
20260506233813 42 271 1.0 5.0 0.01 1.18 1.14 98 1005.5
20260506233532 42 138 0.0 2.0 0.01 1.18 1.14 98 1005.3
20260506232812 42 138 0.0 2.0 0.02 1.18 1.14 98 1005.2
20260506232530 42 138 1.0 3.0 0.03 1.18 1.14 98 1005.1
20260506231810 42 138 0.0 3.0 0.04 1.18 1.14 98 1005.1
20260506231307 42 138 0.0 2.0 0.03 1.17 1.13 98 1005.0
20260506230806 42 138 1.0 3.0 0.03 1.17 1.13 98 1004.9
20260506230304 42 138 1.0 3.0 0.04 1.17 1.13 98 1004.8
20260506225801 42 138 1.0 4.0 0.04 1.17 1.13 98 1004.8
20260506225306 42 138 1.0 4.0 0.04 1.17 1.13 98 1004.8
20260506224258 42 125 0.0 2.0 0.04 1.17 1.13 98 1004.8
20260506223757 43 124 1.0 3.0 0.05 1.17 1.13 98 1004.7
20260506223513 43 123 1.0 3.0 0.06 1.17 1.13 98 1004.6
20260506222748 43 123 1.0 2.0 0.05 1.16 1.12 98 1004.6
20260506222245 43 123 1.0 3.0 0.04 1.15 1.11 98 1004.7
20260506222005 43 123 1.0 3.0 0.03 1.14 1.10 98 1004.7
20260506221502 43 121 1.0 3.0 0.03 1.14 1.10 98 1004.6
20260506220741 43 121 1.0 3.0 0.03 1.14 1.10 98 1004.5
20260506220508 43 121 1.0 3.0 0.02 1.13 1.09 98 1004.4
20260506215741 43 122 1.0 3.0 0.02 1.13 1.09 98 1004.7
20260506215241 43 122 1.0 3.0 0.02 1.13 1.09 98 1004.6
20260506214739 43 121 1.0 3.0 0.02 1.13 1.09 98 1004.6
20260506214239 43 121 1.0 3.0 0.03 1.13 1.09 98 1004.5
20260506213737 43 120 1.0 3.0 0.02 1.12 1.08 98 1004.4
20260506213237 43 120 0.0 2.0 0.01 1.11 1.07 98 1004.5
20260506212738 43 121 0.0 1.0 0.01 1.11 1.07 98 1004.5
20260506212237 43 120 0.0 1.0 0.01 1.11 1.07 98 1004.6
20260506211230 43 121 1.0 2.0 0.02 1.11 1.07 98 1004.1
20260506210724 43 121 1.0 2.0 0.02 1.11 1.07 98 1004.1
20260506210214 43 120 1.0 2.0 0.02 1.11 1.07 98 1004.1
20260506205707 43 119 1.0 2.0 0.03 1.11 1.07 98 1004.0
20260506205202 43 119 0.0 1.0 0.03 1.11 1.07 98 1004.0
20260506204653 43 119 1.0 2.0 0.04 1.11 1.07 98 1004.0
20260506204147 43 119 1.0 2.0 0.03 1.10 1.06 98 1003.9
20260506203641 43 119 0.0 2.0 0.03 1.11 1.06 98 1003.9
20260506203130 42 119 0.0 1.0 0.03 1.11 1.06 98 1003.9
20260506202624 42 119 0.0 1.0 0.04 1.12 1.06 98 1003.9
20260506202122 42 119 0.0 1.0 0.04 1.13 1.06 98 1004.0
20260506201623 42 119 0.0 2.0 0.03 1.12 1.06 98 1003.9
20260506201123 42 119 1.0 2.0 0.03 1.16 1.05 98 1004.0
20260506200622 42 119 0.0 1.0 0.04 1.20 1.05 98 1004.0
20260506200122 42 119 1.0 2.0 0.04 1.20 1.05 98 1004.0
20260506195621 42 119 1.0 3.0 0.03 1.19 1.04 98 1004.0
20260506194622 42 118 1.0 3.0 0.02 1.18 1.03 98 1004.2
20260506194124 42 118 1.0 3.0 0.03 1.18 1.03 98 1004.1
20260506193621 42 117 1.0 3.0 0.03 1.18 1.03 98 1004.1
20260506193121 42 117 1.0 3.0 0.02 1.17 1.02 98 1004.1
20260506192621 42 117 1.0 6.0 0.03 1.17 1.02 98 1004.1
20260506192121 42 118 1.0 6.0 0.04 1.17 1.02 98 1004.1
20260506191622 42 126 2.0 6.0 0.05 1.17 1.02 98 1004.0
20260506191121 42 98 2.0 7.0 0.05 1.17 1.02 98 1004.0
20260506190621 42 189 2.0 7.0 0.05 1.16 1.01 98 1004.0
20260506190342 42 124 2.0 4.0 0.06 1.16 1.01 98 1004.0
20260506185621 42 144 2.0 5.0 0.06 1.16 1.01 98 1004.1
20260506185122 42 146 2.0 5.0 0.07 1.16 1.01 98 1004.0
20260506184620 42 128 1.0 6.0 0.07 1.16 1.01 98 1004.1
20260506184346 42 124 1.0 6.0 0.06 1.15 1.00 98 1004.1
20260506183616 42 123 2.0 6.0 0.06 1.17 1.00 98 1004.1
20260506183338 42 119 2.0 6.0 0.07 1.17 1.00 98 1004.0
20260506182615 42 128 2.0 7.0 0.06 1.16 0.99 98 1004.1
20260506182115 42 130 2.0 7.0 0.06 1.15 0.98 98 1004.2
20260506181615 42 131 2.0 4.0 0.05 1.14 0.98 98 1004.4
20260506181336 41 107 2.0 4.0 0.06 1.14 0.97 98 1004.6
20260506180620 42 103 1.0 3.0 0.06 1.13 0.96 98 1004.6
20260506180113 42 84 1.0 3.0 0.06 1.12 0.95 98 1004.5
20260506175613 42 84 0.0 2.0 0.08 1.12 0.95 98 1004.4
20260506175111 42 83 0.0 2.0 0.08 1.11 0.94 98 1004.5
20260506174611 42 83 1.0 3.0 0.10 1.11 0.94 98 1004.5
20260506174109 42 83 1.0 3.0 0.11 1.11 0.94 98 1004.5
20260506173607 42 84 1.0 3.0 0.12 1.11 0.94 98 1004.5
20260506173330 42 84 1.0 3.0 0.13 1.10 0.93 98 1004.5
20260506172827 42 82 1.0 3.0 0.14 1.10 0.93 98 1004.5
20260506172327 42 82 1.0 4.0 0.14 1.09 0.92 98 1004.6
20260506171605 42 82 1.0 4.0 0.16 1.09 0.92 97 1004.7
20260506171105 42 55 1.0 3.0 0.16 1.08 0.91 97 1004.7
20260506170605 42 54 0.0 2.0 0.16 1.07 0.90 97 1004.8
20260506170327 42 54 1.0 3.0 0.16 1.06 0.89 98 1004.8
20260506165605 42 54 1.0 3.0 0.14 1.04 0.87 97 1004.8
20260506165102 42 55 1.0 3.0 0.15 1.03 0.86 98 1004.7
20260506164604 42 55 1.0 3.0 0.14 1.01 0.84 98 1004.7
20260506164315 42 54 1.0 4.0 0.13 1.00 0.83 98 1004.7
20260506163557 42 54 1.0 4.0 0.13 0.99 0.82 98 1004.6
20260506163100 42 53 1.0 4.0 0.12 0.97 0.80 98 1004.7
20260506162557 42 53 2.0 7.0 0.12 0.96 0.79 98 1004.7
20260506162057 42 49 1.0 7.0 0.12 0.95 0.78 98 1004.6
20260506161558 42 63 1.0 2.0 0.12 0.93 0.76 98 1004.8
20260506161054 42 63 1.0 3.0 0.12 0.92 0.75 98 1004.8
20260506160555 42 63 0.0 3.0 0.12 0.91 0.74 98 1004.8
20260506160054 42 61 1.0 2.0 0.13 0.90 0.73 98 1004.9
20260506155555 42 61 0.0 2.0 0.14 0.90 0.73 98 1004.9
20260506155055 42 61 1.0 3.0 0.13 0.88 0.72 98 1005.1
20260506154556 42 61 2.0 5.0 0.13 0.87 0.71 98 1005.0
20260506154055 42 61 2.0 5.0 0.14 0.87 0.70 98 1004.9
20260506153820 42 90 2.0 6.0 0.14 0.86 0.69 97 1004.8
20260506153053 42 115 1.0 6.0 0.14 0.85 0.68 97 1004.9
20260506152812 42 139 2.0 8.0 0.14 0.84 0.67 97 1005.0
20260506152052 42 140 2.0 8.0 0.14 0.83 0.66 97 1005.1
20260506151554 42 88 2.0 9.0 0.14 0.81 0.64 98 1005.1
20260506151053 42 122 3.0 9.0 0.14 0.80 0.63 98 1005.0
20260506150553 42 137 2.0 8.0 0.15 0.79 0.62 97 1005.1
20260506150051 42 132 2.0 9.0 0.14 0.77 0.60 97 1005.2
20260506145806 43 117 3.0 10.0 0.14 0.76 0.59 97 1005.2
20260506145048 43 134 3.0 10.0 0.14 0.75 0.58 97 1005.2
20260506144813 43 121 3.0 11.0 0.13 0.74 0.57 98 1005.2
20260506144049 43 99 3.0 11.0 0.13 0.73 0.56 98 1004.9
20260506143548 43 123 3.0 8.0 0.13 0.72 0.55 98 1005.1
20260506143048 43 116 3.0 8.0 0.12 0.71 0.54 97 1005.0
20260506142049 43 120 2.0 8.0 0.12 0.69 0.52 97 1005.2
20260506141814 43 136 3.0 8.0 0.11 0.67 0.50 98 1005.1
20260506141049 43 140 3.0 10.0 0.11 0.66 0.49 98 1005.1
20260506140549 44 98 3.0 10.0 0.10 0.64 0.47 97 1005.2
20260506140314 44 120 4.0 9.0 0.10 0.63 0.46 97 1005.0
20260506135807 44 98 4.0 9.0 0.11 0.62 0.45 97 1005.1
20260506135306 44 130 4.0 9.0 0.12 0.61 0.45 97 1005.1
20260506134809 44 121 3.0 9.0 0.13 0.61 0.44 97 1005.1
20260506134045 44 156 4.0 12.0 0.13 0.60 0.43 97 1005.0
20260506133544 44 76 3.0 12.0 0.13 0.59 0.42 98 1004.9
20260506133045 45 149 3.0 8.0 0.14 0.59 0.42 97 1005.2
20260506132544 45 154 2.0 8.0 0.13 0.58 0.41 97 1005.3
20260506132044 45 142 2.0 9.0 0.13 0.57 0.40 98 1005.3
20260506131544 45 115 2.0 9.0 0.14 0.56 0.39 98 1005.3
20260506131045 45 151 2.0 6.0 0.14 0.55 0.38 98 1005.5
20260506130544 45 166 2.0 8.0 0.14 0.54 0.37 97 1005.4
20260506130044 46 161 2.0 8.0 0.15 0.53 0.36 97 1005.3
20260506125544 46 164 2.0 5.0 0.14 0.51 0.34 98 1005.6
20260506125044 46 119 1.0 4.0 0.14 0.49 0.32 97 1005.4
20260506124542 46 117 1.0 4.0 0.14 0.48 0.31 98 1005.4
20260506124044 46 142 2.0 4.0 0.14 0.47 0.30 98 1005.3
20260506123541 46 152 1.0 4.0 0.14 0.46 0.29 98 1005.5
20260506123035 46 188 1.0 4.0 0.14 0.45 0.29 98 1005.5
20260506122747 45 52 1.0 4.0 0.13 0.44 0.28 97 1005.5
20260506122238 45 316 1.0 3.0 0.13 0.43 0.27 97 1005.7
20260506121734 45 316 1.0 3.0 0.12 0.42 0.25 97 1005.8
20260506121013 45 317 3.0 14.0 0.12 0.41 0.24 97 1005.9
20260506120510 44 317 4.0 15.0 0.11 0.40 0.24 97 1005.8
20260506120229 45 252 3.0 15.0 0.09 0.38 0.21 97 1006.4
20260506115510 45 250 2.0 6.0 0.07 0.36 0.20 97 1005.8
20260506115009 45 214 2.0 6.0 0.07 0.35 0.18 97 1005.8
20260506114508 45 252 2.0 4.0 0.06 0.34 0.17 97 1005.6
20260506114009 45 268 1.0 5.0 0.05 0.32 0.16 97 1005.7
20260506113508 45 350 1.0 5.0 0.05 0.32 0.15 97 1005.4
20260506113009 45 244 1.0 4.0 0.05 0.31 0.14 97 1005.6
20260506112509 45 244 2.0 5.0 0.05 0.31 0.14 97 1005.7
20260506112007 45 243 2.0 5.0 0.05 0.30 0.13 97 1005.8
20260506111506 45 237 2.0 5.0 0.05 0.30 0.13 97 1005.7
20260506111006 45 258 1.0 2.0 0.04 0.29 0.12 97 1005.7
20260506110505 45 258 1.0 7.0 0.04 0.29 0.12 97 1005.7
20260506110007 45 258 2.0 7.0 0.04 0.29 0.12 97 1005.8
20260506105007 45 222 3.0 8.0 0.03 0.28 0.11 97 1006.0
20260506104504 45 222 4.0 8.0 0.04 0.28 0.11 97 1005.9
20260506104005 45 344 4.0 9.0 0.03 0.28 0.11 97 1005.5
20260506103725 45 263 5.0 10.0 0.03 0.28 0.10 97 1006.4
20260506103221 46 255 3.0 10.0 0.02 0.27 0.09 97 1006.4
20260506102503 46 258 2.0 8.0 0.02 0.27 0.09 97 1006.1
20260506102003 46 346 1.0 3.0 0.01 0.26 0.08 97 1005.7
20260506101500 46 347 0.0 2.0 0.01 0.26 0.08 97 1005.6
20260506100958 46 347 0.0 2.0 0.01 0.26 0.08 97 1005.5
20260506100458 46 347 0.0 2.0 0.01 0.26 0.08 97 1005.6
20260506100222 46 347 0.0 3.0 0.01 0.26 0.08 97 1005.6
20260506095459 46 347 0.0 3.0 0.01 0.26 0.08 97 1005.6
20260506094959 46 347 1.0 3.0 0.01 0.26 0.08 97 1005.7
20260506094452 46 347 1.0 3.0 0.01 0.25 0.07 97 1005.7
20260506094208 46 347 1.0 3.0 0.02 0.25 0.07 96 1005.7
20260506093442 46 347 1.0 3.0 0.02 0.25 0.07 96 1005.9
20260506092940 46 348 1.0 3.0 0.02 0.25 0.07 96 1005.9
20260506092704 46 349 1.0 4.0 0.02 0.25 0.07 96 1005.6
20260506091940 46 355 1.0 5.0 0.02 0.25 0.07 96 1005.7
20260506091440 46 0 2.0 5.0 0.02 0.25 0.07 96 1006.0
20260506090941 46 325 1.0 5.0 0.02 0.25 0.07 96 1006.0
20260506090438 46 286 1.0 5.0 0.02 0.25 0.07 96 1005.9
20260506090159 46 349 2.0 4.0 0.02 0.25 0.07 96 1006.0
20260506085436 46 329 3.0 8.0 0.02 0.25 0.07 96 1006.2
20260506084937 46 323 5.0 12.0 0.02 0.25 0.07 96 1006.4
20260506084434 46 0 4.0 12.0 0.01 0.24 0.06 96 1007.2
20260506083932 46 268 2.0 6.0 0.00 0.23 0.05 96 1006.7
20260506083653 46 0 2.0 8.0 0.00 0.23 0.05 96 1006.0
20260506082928 46 304 2.0 8.0 0.00 0.23 0.05 96 1006.5
20260506082428 46 303 2.0 4.0 0.00 0.23 0.05 96 1006.5
20260506081929 46 302 1.0 4.0 0.00 0.23 0.05 96 1006.5
20260506081424 46 285 2.0 4.0 0.00 0.23 0.05 96 1006.4
20260506081142 47 285 1.0 4.0 0.00 0.23 0.05 95 1006.6
20260506080422 47 337 1.0 5.0 0.00 0.23 0.05 95 1006.2
20260506080146 47 338 3.0 10.0 0.00 0.23 0.05 96 1006.4